DW6399 Weather Reports


time (UTC)temp
F
wind
direction
speed
knots
gust
knots
rain 1hr
in
rain 24hr
in
rain mn
in
humidity
%
barometer
mb
20260504020904 26 0 0.0 0.0 0.00 0.00 0.00 83 1004.6
20260504015425 26 307 0.0 0.9 0.00 0.00 0.00 83 1004.7
20260504014504 26 307 0.0 0.9 0.00 0.00 0.00 83 1004.8
20260504013604 26 0 0.0 0.0 0.00 0.00 0.00 83 1004.8
20260504012725 26 0 0.0 0.0 0.00 0.00 0.00 83 1004.9
20260504011804 26 0 0.0 0.0 0.00 0.00 0.00 83 1004.9
20260504010904 26 0 0.0 0.0 0.00 0.00 0.00 83 1004.9
20260504010004 26 0 0.0 0.0 0.00 0.00 0.00 83 1004.8
20260504005404 26 0 0.0 0.0 0.00 0.00 0.00 82 1004.9
20260504004504 26 0 0.0 0.0 0.00 0.00 0.00 81 1004.9
20260504003604 27 0 0.0 0.0 0.00 0.00 0.00 81 1005.0
20260504002704 27 0 0.0 0.0 0.00 0.00 0.00 80 1005.0
20260504001804 28 0 0.0 0.0 0.00 0.00 0.00 79 1005.1
20260504000904 28 0 0.0 0.0 0.00 0.00 0.00 80 1005.1
20260504000004 28 0 0.0 0.0 0.00 0.00 0.00 80 1005.2
20260503235404 28 0 0.0 0.0 0.00 0.00 0.00 80 1005.1
20260503234504 28 307 0.0 0.9 0.00 0.00 0.00 81 1005.1
20260503233604 28 307 0.0 1.7 0.00 0.00 0.00 80 1005.2
20260503232704 28 307 0.0 1.7 0.00 0.00 0.00 80 1005.2
20260503231804 28 0 0.0 0.0 0.00 0.00 0.00 81 1005.2
20260503230904 28 0 0.0 0.0 0.00 0.00 0.00 82 1005.1
20260503230004 27 0 0.0 0.0 0.00 0.00 0.00 81 1005.2
20260503225425 27 0 0.0 0.0 0.00 0.00 0.00 81 1005.1
20260503224525 27 0 0.0 0.0 0.00 0.00 0.00 79 1005.2
20260503223625 28 0 0.0 0.0 0.00 0.00 0.00 80 1005.2
20260503222704 28 0 0.0 0.0 0.00 0.00 0.00 79 1005.2
20260503221804 29 0 0.0 0.0 0.00 0.00 0.00 77 1005.3
20260503220925 29 0 0.0 0.0 0.00 0.00 0.00 79 1005.3
20260503220025 29 307 0.0 0.9 0.00 0.00 0.00 79 1005.3
20260503215425 29 307 0.9 1.7 0.00 0.00 0.00 79 1005.3
20260503214504 29 307 0.9 1.7 0.00 0.00 0.00 79 1005.3
20260503213625 29 307 0.9 1.7 0.00 0.00 0.00 78 1005.3
20260503212704 29 307 0.9 1.7 0.00 0.00 0.00 77 1005.3
20260503211804 29 307 0.9 1.7 0.00 0.00 0.00 77 1005.4
20260503210904 30 307 1.7 2.6 0.00 0.00 0.00 76 1005.5
20260503210005 30 307 1.7 2.6 0.00 0.00 0.00 75 1005.6
20260503205404 31 308 2.6 5.2 0.00 0.00 0.00 74 1005.6
20260503204504 30 320 2.6 4.3 0.00 0.00 0.00 75 1005.5
20260503203625 30 320 2.6 4.3 0.00 0.00 0.00 75 1005.6
20260503202704 30 320 2.6 3.5 0.00 0.00 0.00 74 1005.7
20260503201804 31 320 2.6 3.5 0.00 0.00 0.00 71 1005.6
20260503200904 32 320 2.6 4.3 0.00 0.00 0.00 69 1005.7
20260503200025 33 313 3.5 5.2 0.00 0.00 0.00 69 1005.7
20260503195404 33 317 2.6 4.3 0.00 0.00 0.00 70 1005.7
20260503194504 32 317 2.6 4.3 0.00 0.00 0.00 71 1005.7
20260503193604 32 317 2.6 4.3 0.00 0.00 0.00 70 1005.7
20260503192704 32 317 2.6 4.3 0.00 0.00 0.00 70 1005.7
20260503191804 32 317 2.6 4.3 0.00 0.00 0.00 70 1005.7
20260503190904 32 317 1.7 2.6 0.00 0.00 0.00 69 1005.6
20260503190025 34 317 1.7 3.5 0.00 0.00 0.00 66 1005.6
20260503185404 34 317 1.7 3.5 0.00 0.00 0.00 66 1005.6
20260503184504 35 317 1.7 3.5 0.00 0.00 0.00 65 1005.6
20260503183604 35 317 0.9 2.6 0.00 0.00 0.00 65 1005.6
20260503182704 36 317 0.9 2.6 0.00 0.00 0.00 62 1005.5
20260503181804 38 317 1.7 3.5 0.00 0.00 0.00 60 1005.5
20260503180904 39 331 2.6 4.3 0.00 0.00 0.00 56 1005.5
20260503180004 40 325 2.6 3.5 0.00 0.00 0.00 54 1005.4
20260503175404 42 312 2.6 3.5 0.00 0.00 0.00 51 1005.3
20260503174504 42 312 2.6 3.5 0.00 0.00 0.00 50 1005.4
20260503173625 43 312 3.5 7.8 0.00 0.00 0.00 48 1005.3
20260503172704 44 325 5.2 8.7 0.00 0.00 0.00 46 1005.3
20260503171804 45 316 5.2 10.4 0.00 0.00 0.00 45 1005.2
20260503170904 45 302 6.1 12.2 0.00 0.00 0.00 45 1005.2
20260503150904 46 311 7.8 13.9 0.00 0.00 0.00 41 1004.9
20260503130925 48 308 9.6 16.5 0.00 0.00 0.00 46 1004.5
20260503080904 46 294 7.0 13.9 0.00 0.00 0.00 51 1003.8
20260503072703 45 295 6.1 13.0 0.00 0.00 0.00 53 1003.6
20260503071803 44 281 5.2 13.0 0.00 0.00 0.00 57 1003.3
20260503070903 45 279 4.3 13.0 0.00 0.00 0.00 56 1003.4
20260503054503 42 299 6.1 9.6 0.00 0.00 0.00 63 1003.1
20260503053603 42 298 5.2 9.6 0.00 0.00 0.00 64 1003.2
20260503052724 42 301 6.1 10.4 0.00 0.00 0.00 64 1003.1
20260503051803 41 294 6.1 11.3 0.00 0.00 0.00 65 1003.1
20260503050903 41 319 6.1 10.4 0.00 0.00 0.00 65 1002.9
20260503050003 41 305 6.1 11.3 0.00 0.00 0.00 65 1002.9
20260503045424 42 296 6.1 10.4 0.00 0.00 0.00 65 1002.8
20260503044504 41 298 5.2 10.4 0.00 0.00 0.00 65 1002.7
20260503043603 41 305 5.2 7.8 0.00 0.00 0.00 66 1002.8
20260503042724 41 299 5.2 9.6 0.00 0.00 0.00 66 1002.9
20260503041803 41 287 4.3 8.7 0.00 0.00 0.00 67 1002.3
20260503040903 40 299 4.3 8.7 0.00 0.00 0.00 67 1002.2
20260503040003 40 285 5.2 8.7 0.00 0.00 0.00 67 1002.1
20260503035424 40 290 5.2 8.7 0.00 0.00 0.00 67 1001.5
20260503034503 40 287 4.3 8.7 0.00 0.00 0.00 68 1003.4
20260503033603 40 292 5.2 8.7 0.00 0.00 0.00 68 1002.7
20260503032703 40 301 4.3 8.7 0.00 0.00 0.00 68 1002.5
20260503031824 40 290 3.5 7.0 0.00 0.00 0.00 69 1002.5
20260503030924 39 286 3.5 7.8 0.00 0.00 0.00 68 1002.5
20260503030004 39 291 3.5 7.8 0.00 0.00 0.00 69 1002.4
20260503025403 39 296 2.6 7.0 0.00 0.00 0.00 68 1002.4
20260503024503 39 286 3.5 7.0 0.00 0.00 0.00 68 1002.4
20260503023603 40 278 3.5 7.0 0.00 0.00 0.00 68 1002.4
20260503022703 40 286 3.5 6.1 0.00 0.00 0.00 68 1002.3
20260503021803 41 294 3.5 7.8 0.00 0.00 0.00 67 1002.2